HULIANWANG DIGUI-114

Last updated on Sat Dec 13 2025 00:02:09 GMT+0000 (Coordinated Universal Time)

1 66953U 25287A 25345.23875512 .00000028 00000+0 13584-4 0 9999 2 66953 86.4966 346.7027 0008550 209.4482 150.6197 13.68688345 322
UTC large
Height (km)
Speed (km/s)
/
Latitude / Longitude
Inclination (degrees)
Orbital Period (minutes)
Azimuth
Elevation
Range (km)
Doppler Factor

Next 0 passes for location: London (51.5072 / 0.1276)

Sorry there are no passes over London.